Theta_e
333 333 332 333 333 333 333 333 332 328 320 317 319 321 322 322 322 321 321 322 324 328 332 332 332 333 332 331 331 331 331 331 331 332 332 331 331 330 330 330 328 328 325 323 323 323 323 322 322 322 320 315 312 310 308 307 306 308 309 311 316 318 318 319 320 320 319 319 319 319 318 318 319 319 315 310 308 307 308 310 314 321 325 326 327
333 333 332 332 332 332 332 332 333 332 328 321 318 320 321 322 323 324 326 328 330 332 334 334 333 333 332 331 331 331 331 331 331 331 332 331 331 330 330 330 329 328 326 324 325 324 323 322 322 322 318 313 311 309 308 307 306 308 310 312 316 318 319 319 319 320 320 320 319 319 319 319 320 322 320 316 311 308 307 308 309 316 322 325 327
333 333 333 333 332 331 331 332 332 333 332 329 322 318 319 321 322 323 326 330 333 334 333 334 334 334 333 332 332 332 332 332 332 332 332 332 331 331 331 330 329 329 327 325 326 325 325 324 323 321 316 313 311 309 308 307 307 308 310 313 316 318 319 319 320 320 320 320 320 320 320 320 320 322 322 321 318 312 308 308 308 310 317 323 325
334 333 332 332 332 332 331 331 332 332 333 333 329 322 317 319 321 321 323 325 329 329 329 331 333 334 333 333 333 333 332 332 333 333 332 332 332 331 331 330 330 329 328 326 326 327 327 324 323 321 316 312 308 308 308 306 307 309 311 315 317 319 320 320 320 320 321 321 320 320 321 321 320 321 322 323 322 318 312 309 310 309 312 317 322
334 333 332 332 332 332 332 331 332 332 332 332 333 329 321 318 319 320 320 322 324 325 327 327 330 333 334 334 333 333 333 333 333 333 332 332 332 331 331 330 330 330 329 326 326 328 327 324 321 319 317 310 306 307 309 307 308 311 314 317 319 320 320 321 321 321 321 321 321 320 321 320 320 321 321 322 323 321 317 313 311 311 312 314 318
334 332 331 332 332 332 331 331 331 331 332 332 333 333 329 324 322 322 323 323 324 327 329 329 329 331 334 334 333 333 332 333 333 333 332 332 332 332 331 330 330 330 329 327 327 328 328 325 319 316 315 309 305 308 310 309 310 313 317 319 320 321 321 320 320 321 321 321 321 321 320 320 320 320 321 321 323 321 319 318 315 313 314 316 318
333 330 328 330 331 331 331 331 331 331 332 332 332 332 332 331 329 328 328 328 328 329 330 330 330 330 332 334 333 331 331 332 332 332 332 332 332 332 331 330 330 330 329 327 328 329 328 325 317 312 311 308 304 307 312 312 312 315 319 320 321 322 321 320 320 320 320 320 320 321 321 320 320 320 320 321 322 322 320 320 319 316 315 316 317
333 330 328 328 329 329 330 330 332 332 332 332 331 331 332 332 332 332 331 331 330 330 330 330 330 331 332 332 331 330 330 331 331 331 331 331 332 332 330 330 330 331 330 328 328 329 329 326 319 311 308 308 304 305 311 313 314 318 320 321 322 322 321 320 319 319 319 319 319 319 320 320 320 319 320 320 321 322 322 321 321 320 317 316 316
332 331 330 329 329 329 330 331 332 332 332 332 332 332 332 332 332 333 333 332 331 330 330 330 330 331 332 331 330 331 331 331 331 331 331 330 331 331 330 330 330 331 331 329 328 329 329 327 324 314 307 307 304 303 310 314 316 319 320 322 323 322 321 320 319 319 318 318 317 317 318 319 319 320 320 321 321 322 322 322 321 321 320 319 319
332 332 331 330 331 331 332 332 332 332 332 332 332 332 332 332 333 333 333 333 332 331 331 330 330 331 331 331 331 331 331 331 332 331 330 330 330 331 330 330 330 331 331 330 328 329 329 328 327 318 307 306 304 304 310 314 318 320 322 323 324 321 320 322 321 319 319 319 317 315 316 319 319 320 321 321 321 321 322 322 322 322 321 321 321
332 331 331 332 332 332 333 333 333 333 333 332 332 332 332 332 333 333 333 333 332 332 332 331 331 331 331 331 331 331 331 331 332 332 331 330 330 330 331 330 330 330 331 331 329 329 329 328 328 320 309 305 305 305 310 315 319 321 323 324 325 322 321 324 324 321 319 319 318 316 315 318 319 320 321 320 320 321 322 322 322 322 322 322 322
332 331 331 331 332 332 333 334 334 334 333 332 332 332 332 332 332 333 333 333 333 333 332 332 332 331 331 331 331 331 330 331 331 332 331 331 330 330 331 331 330 329 330 331 330 330 329 329 329 323 312 307 307 309 312 317 320 321 323 325 325 325 324 326 326 324 321 319 319 318 315 317 319 319 320 320 320 321 322 322 323 323 323 322 322
332 331 331 331 332 332 333 333 333 333 333 332 332 332 332 331 332 333 333 333 333 333 333 332 332 331 331 331 331 330 331 331 330 331 331 331 331 330 330 331 331 329 329 330 330 330 330 329 329 326 318 312 310 312 314 318 320 321 324 326 326 327 326 327 327 326 324 320 318 319 317 315 318 320 320 320 321 321 322 322 323 323 323 322 322
331 331 331 331 332 332 332 332 332 332 333 333 333 333 332 332 332 332 332 332 332 332 333 333 332 332 332 332 331 331 331 330 330 330 330 331 331 331 330 331 331 329 329 330 330 330 331 330 329 327 324 318 313 314 317 319 321 322 324 326 327 327 327 327 327 327 326 322 318 319 319 315 315 319 320 320 321 321 322 322 322 323 322 322 322
332 331 332 332 332 332 332 332 332 333 332 332 332 332 332 332 332 332 332 332 332 332 332 332 332 332 332 332 331 331 331 330 330 329 329 330 330 330 330 331 331 330 329 329 330 331 331 330 330 328 327 324 318 316 318 319 321 322 323 326 327 327 327 327 327 327 326 324 320 318 320 316 314 318 320 320 321 321 322 322 322 322 322 322 321
332 331 331 332 332 332 332 332 332 332 332 332 332 332 332 332 332 332 332 332 332 332 332 331 332 332 332 331 331 331 331 331 330 329 329 329 330 330 330 331 331 331 330 329 329 330 330 330 331 328 327 327 324 320 318 319 321 322 323 325 327 327 327 327 327 327 327 325 322 318 319 318 314 317 320 320 321 322 322 322 322 322 322 321 321
332 331 331 331 331 331 331 331 331 331 331 332 331 331 331 330 330 330 331 331 331 331 331 331 331 331 331 331 331 331 331 331 330 329 329 329 329 330 330 330 330 331 331 329 329 330 330 330 331 329 328 328 328 325 321 320 321 322 323 324 326 327 327 327 327 327 327 326 323 318 318 319 315 316 320 320 320 321 322 322 322 322 322 321 320
332 332 331 331 331 331 331 331 331 331 330 330 330 330 329 328 328 329 329 330 331 331 331 331 331 330 331 331 331 331 331 331 330 330 330 329 329 329 329 329 329 330 331 330 329 330 330 330 330 330 329 328 328 328 324 322 322 323 323 323 325 326 327 327 327 327 327 326 325 319 317 319 316 314 318 320 320 320 321 322 322 322 322 319 318
332 331 331 331 331 331 331 331 331 330 329 329 329 329 328 327 327 327 328 328 330 331 330 330 330 329 330 330 331 331 331 331 330 330 330 330 329 329 329 329 329 330 331 330 329 329 329 330 331 330 329 329 328 328 327 325 325 325 325 324 325 326 326 327 327 328 327 326 325 320 316 318 316 313 314 317 319 320 320 321 322 321 321 319 316
331 331 331 330 330 331 331 330 330 329 329 328 328 329 328 327 326 326 326 326 328 330 330 329 329 329 329 329 329 329 330 331 331 330 330 330 329 329 329 329 329 330 331 330 328 328 329 330 330 330 329 329 328 327 327 327 327 327 327 325 324 325 326 326 327 328 327 326 325 321 319 318 316 313 311 310 314 318 319 319 320 320 320 318 315
332 332 331 330 330 331 331 330 330 329 329 328 328 327 327 327 327 326 326 325 327 329 329 329 329 329 329 328 328 328 329 330 330 330 331 330 330 329 329 329 329 329 330 330 328 328 329 330 330 330 329 329 329 328 327 327 327 327 327 325 324 325 325 325 327 327 327 326 323 321 322 320 317 314 310 307 307 312 315 316 317 318 318 317 311
331 330 330 330 330 330 330 330 329 328 328 328 328 327 326 326 327 326 326 326 327 328 329 328 328 328 329 329 329 329 330 330 330 330 330 330 330 329 329 329 329 329 328 328 328 328 329 330 330 330 330 329 329 328 328 328 328 327 327 326 325 325 324 325 326 327 327 326 320 318 322 323 319 314 309 306 304 306 310 312 315 315 314 312 307
329 328 328 328 329 330 329 328 328 327 327 327 327 327 327 326 326 326 326 326 327 328 328 328 328 328 328 329 329 329 330 330 330 330 330 330 330 330 329 329 329 329 328 328 328 328 329 330 330 330 329 329 329 328 328 328 328 327 327 326 326 326 325 324 326 326 327 326 320 314 319 323 321 314 308 306 304 304 306 308 309 309 308 306 303
328 328 327 327 328 329 328 327 327 326 326 326 326 326 327 327 326 326 326 327 327 327 327 327 327 327 328 328 329 329 329 329 330 330 329 329 329 329 328 328 329 329 329 329 329 329 329 329 329 329 329 329 330 329 328 328 328 327 327 326 326 326 325 324 325 326 326 327 323 314 314 320 321 315 309 305 304 304 303 303 304 304 303 302 302
326 325 325 326 326 326 326 325 325 325 325 325 325 325 326 327 327 326 326 327 327 327 327 327 327 327 328 328 329 329 329 329 330 329 329 329 329 329 327 328 328 329 329 329 329 329 329 329 330 330 329 329 329 329 328 328 328 328 327 327 326 326 326 325 325 325 325 325 324 316 311 315 319 318 311 305 303 303 303 302 302 302 302 301 301
324 324 324 324 325 324 323 323 323 323 324 323 323 324 325 325 326 326 327 327 327 327 327 327 327 328 328 328 328 329 329 329 330 329 329 329 329 328 327 328 328 328 329 329 329 329 329 329 329 329 329 329 329 329 329 328 328 328 328 327 327 326 326 326 325 325 325 325 323 317 309 310 317 320 314 307 304 302 302 302 302 302 301 301 301
322 322 322 322 321 321 320 320 320 321 321 322 322 323 323 324 325 326 327 327 327 327 327 327 327 327 327 328 328 328 329 329 329 329 329 329 329 328 328 329 329 328 329 330 329 329 329 329 329 329 329 329 329 329 329 328 328 328 328 327 327 326 326 326 326 325 325 325 322 316 310 307 314 321 317 310 305 302 302 302 302 301 301 301 301
318 318 318 318 318 318 318 318 318 318 319 319 320 321 322 322 323 324 326 327 327 327 327 326 325 325 326 327 327 327 328 328 329 329 329 329 329 329 329 329 329 329 329 330 330 329 329 329 329 329 329 329 329 329 329 328 328 328 328 328 327 327 326 326 326 325 324 325 322 316 310 306 310 318 318 312 307 303 302 302 301 301 301 301 301
314 314 314 315 315 315 316 317 317 318 318 318 318 319 319 320 321 322 323 325 326 326 326 325 325 325 325 326 327 327 327 328 328 329 329 329 329 330 330 330 330 329 329 329 329 329 328 328 328 328 329 329 329 329 329 328 328 328 328 328 327 327 327 326 326 325 324 325 323 316 311 307 307 312 315 312 308 304 302 302 301 301 301 301 301
313 313 313 312 313 313 313 314 315 316 317 317 317 317 317 317 318 319 319 321 322 323 324 324 325 324 325 326 326 327 327 327 328 329 329 330 330 330 330 330 330 330 329 329 329 328 328 327 327 327 328 329 329 329 329 328 328 328 328 327 327 327 327 326 326 325 324 325 324 317 312 308 306 307 309 310 309 305 302 302 301 301 301 301 300
311 311 311 312 312 312 312 312 313 313 313 314 314 314 315 315 315 315 316 316 317 318 319 321 323 324 324 325 326 326 326 327 328 328 329 330 330 330 330 329 330 330 329 329 329 328 327 328 327 327 327 328 329 329 329 329 328 328 328 327 327 327 327 327 326 325 324 324 324 319 313 309 307 306 306 306 307 305 302 302 301 301 301 301 301
311 311 311 311 311 311 312 312 312 312 312 312 312 312 313 313 313 313 313 313 314 314 315 317 319 321 323 324 325 325 325 326 327 328 328 329 329 330 330 329 329 329 329 329 329 328 327 328 328 328 328 328 328 329 329 329 329 328 328 327 327 327 328 327 326 326 324 324 323 319 313 310 308 306 306 305 305 305 302 301 301 301 301 301 301
310 310 311 311 311 311 311 311 311 311 311 312 312 312 312 312 312 312 313 313 313 313 314 314 315 317 320 323 324 324 325 326 327 327 328 328 329 329 329 329 329 329 329 329 329 329 328 328 328 328 328 328 329 329 329 330 329 328 328 327 327 327 328 328 327 326 325 324 322 318 313 311 309 307 306 305 304 304 302 301 301 301 301 301 301
310 310 310 310 310 310 310 310 310 310 310 311 311 311 311 311 312 312 312 313 313 313 314 314 313 314 316 320 322 323 324 325 326 327 327 327 328 328 329 329 329 329 329 329 329 329 329 328 328 328 328 328 329 329 329 329 329 329 328 328 327 327 328 328 327 326 325 324 322 319 313 310 309 307 306 304 303 303 302 302 301 301 301 301 301
309 309 309 309 309 309 309 309 309 309 309 309 309 309 310 310 311 311 312 312 312 313 313 314 314 313 313 316 320 323 324 325 326 326 327 327 327 327 328 328 329 329 329 329 329 329 329 329 328 327 327 328 328 329 329 329 329 329 329 328 327 327 327 328 328 326 325 324 323 319 313 309 308 308 306 304 303 302 302 302 301 301 301 301 301
306 307 307 307 307 307 308 308 308 308 308 308 308 308 308 308 309 310 310 311 311 312 312 313 314 314 313 313 316 321 323 323 324 325 326 326 327 327 327 327 328 329 329 329 329 330 330 329 328 327 327 327 328 329 329 329 329 329 329 328 328 327 327 328 328 327 326 325 322 318 312 308 308 308 306 305 303 302 302 302 301 301 301 301 301
304 304 304 305 305 305 305 305 305 305 305 306 306 306 307 307 308 308 309 310 310 311 312 313 313 313 313 313 314 317 321 322 323 324 325 326 326 326 326 327 327 328 328 328 328 329 329 329 328 326 326 327 328 329 329 329 329 329 329 328 328 328 327 328 328 327 326 326 323 318 312 307 307 307 307 305 303 302 302 302 301 301 301 301 301
302 302 302 302 302 303 302 302 303 303 303 304 304 304 305 305 306 307 307 308 309 310 310 311 312 312 313 313 313 315 318 319 321 323 325 326 326 326 326 327 327 327 328 328 328 327 328 329 328 326 326 328 328 328 329 329 329 329 329 329 328 328 328 328 328 327 327 326 324 321 318 311 306 306 307 305 304 302 302 302 301 301 301 301 301
300 300 300 301 300 300 300 300 301 301 301 302 302 303 303 304 304 305 306 307 308 309 309 309 310 311 312 313 313 314 315 317 318 320 323 325 325 326 326 326 327 327 328 328 328 327 327 328 328 328 328 328 328 328 328 329 329 329 329 329 328 328 328 327 327 327 327 327 325 324 323 317 309 306 306 306 304 303 301 302 302 301 301 301 301
298 298 298 298 298 298 298 299 299 299 299 300 300 301 301 302 302 303 304 305 306 307 308 308 308 309 310 311 312 313 314 316 317 319 321 322 324 325 326 326 326 327 327 328 328 328 328 327 328 329 329 329 329 328 328 328 329 328 329 329 329 328 328 327 327 327 327 327 326 325 324 320 313 306 305 306 306 304 302 301 301 301 301 301 301
297 297 297 297 297 297 297 297 297 297 298 298 298 299 299 300 301 301 302 303 304 306 307 308 308 308 309 310 311 313 313 314 316 317 319 321 322 323 324 325 325 326 326 327 328 328 328 327 327 328 329 329 328 328 327 328 328 328 328 328 328 328 329 328 328 327 326 327 327 325 324 322 317 309 305 305 306 305 303 301 301 301 301 301 301
296 296 296 296 296 296 296 295 296 296 296 296 297 297 298 299 299 300 301 302 303 304 305 306 307 308 308 309 310 312 313 314 315 316 318 320 321 322 323 324 325 325 325 326 327 328 327 328 328 328 328 328 328 327 327 327 327 327 327 327 327 328 328 327 326 327 327 327 327 325 324 323 320 312 305 304 305 306 304 301 301 301 301 301 301
296 296 296 295 295 295 295 295 295 295 295 294 295 296 297 298 299 299 300 301 301 302 303 304 305 306 307 308 309 311 312 313 314 314 316 318 320 321 323 323 324 325 325 325 326 327 328 328 328 327 327 327 327 327 327 328 328 327 327 327 327 327 328 327 326 326 327 327 327 326 324 324 322 315 307 304 305 306 305 303 301 301 301 301 301
296 296 296 296 295 295 295 294 294 294 294 294 294 295 296 297 298 298 299 300 300 301 301 302 303 304 305 306 307 309 310 311 312 313 314 316 318 320 321 322 324 325 325 325 325 327 328 328 327 328 327 327 327 327 327 328 328 328 327 327 327 327 328 328 327 327 327 327 326 326 325 324 323 318 309 304 304 306 306 304 302 301 301 301 301
296 296 296 295 295 294 294 294 294 294 294 294 294 294 295 296 297 298 298 299 299 299 300 300 301 302 303 304 305 307 308 309 310 311 312 314 316 318 320 321 323 324 325 326 326 326 326 327 327 328 328 328 328 327 325 326 327 328 328 327 327 327 327 327 327 327 327 327 326 326 325 324 323 318 310 304 304 306 306 305 303 301 301 301 301
296 295 295 294 293 293 293 293 293 293 293 294 294 294 295 295 297 297 298 298 298 299 299 299 300 301 301 302 303 305 306 307 307 308 310 312 313 315 318 320 321 323 324 325 326 326 326 326 326 327 327 328 328 328 326 327 327 327 328 327 327 327 327 327 327 326 326 326 326 326 325 324 321 317 310 305 304 305 306 305 303 301 301 301 301
295 294 293 293 293 293 293 293 293 293 293 293 293 294 294 295 296 297 297 298 298 298 299 299 299 300 301 301 301 302 303 305 305 306 307 309 311 313 315 317 319 321 323 324 325 326 326 326 327 327 326 327 328 328 328 328 328 328 327 327 327 327 327 327 326 326 326 325 325 325 325 325 321 315 309 305 304 305 306 306 304 302 301 301 301
294 293 293 293 292 292 292 292 292 292 293 293 293 293 293 294 295 296 297 297 297 298 298 299 299 299 300 300 300 300 301 303 304 305 305 306 308 310 312 314 316 319 321 323 325 325 326 326 327 327 326 326 327 328 328 328 328 328 328 327 327 327 326 325 324 324 325 325 324 323 324 325 322 316 310 307 306 306 307 307 305 302 301 301 301
293 293 293 293 292 292 292 292 292 292 292 292 292 292 292 293 295 296 296 297 297 297 297 298 298 298 299 299 299 299 300 301 302 303 304 305 307 309 310 312 315 317 319 322 324 325 325 326 326 326 327 327 327 327 328 328 327 327 327 327 327 326 325 324 323 323 324 325 324 323 322 323 322 318 314 313 312 311 310 309 306 303 301 300 300
294 294 294 293 292 292 292 292 292 292 292 292 292 292 292 292 294 295 296 296 296 297 297 297 298 297 298 298 298 299 300 301 301 302 303 304 305 307 309 311 313 315 317 320 323 324 325 325 325 326 326 327 328 327 327 328 328 326 325 325 326 326 325 324 324 324 324 324 324 322 319 320 321 318 317 317 316 314 312 310 307 304 301 300 300
294 294 294 294 293 292 292 291 291 291 292 292 292 292 292 292 293 295 295 296 296 296 296 297 297 297 297 298 298 299 300 300 300 301 302 302 304 306 308 309 312 314 316 318 320 322 324 324 325 325 326 327 327 327 327 327 327 326 325 325 326 326 326 325 324 324 322 322 323 322 318 317 318 318 317 317 315 313 312 310 307 304 302 300 300
Wind_Speed
6 7 7 6 6 6 6 5 4 4 7 10 10 9 9 9 9 10 11 14 14 11 10 10 9 9 9 11 12 10 10 10 11 11 10 9 9 10 12 12 12 13 14 13 12 12 12 12 13 13 11 9 6 5 5 4 6 7 7 6 6 6 5 4 4 3 2 2 2 2 2 3 5 6 6 8 8 8 8 9 13 17 17 16 13
8 8 8 7 8 8 7 6 6 4 5 8 11 12 12 12 12 13 13 14 14 12 12 12 11 11 12 13 14 13 12 12 13 12 12 11 11 12 13 12 12 13 13 13 12 12 12 12 13 12 9 7 4 4 5 5 6 8 7 7 7 6 6 4 4 3 2 2 2 3 3 4 6 6 6 7 8 8 8 8 11 15 18 18 16
9 9 9 8 9 9 8 7 7 6 5 6 10 13 14 14 14 15 16 17 16 14 14 14 14 14 13 13 15 16 14 14 14 14 15 14 13 13 14 13 13 13 13 13 13 12 12 12 12 10 7 6 5 5 5 6 6 8 8 8 7 6 5 4 4 3 2 2 2 3 4 4 7 7 6 7 7 8 9 9 10 12 16 18 17
10 10 10 9 9 9 8 7 7 7 8 7 8 11 14 16 17 17 18 18 19 18 17 17 16 15 15 14 15 17 17 15 15 16 17 17 15 14 14 14 14 13 13 14 13 12 12 12 11 8 7 6 6 5 6 7 7 8 8 8 7 6 5 4 4 3 3 2 2 4 4 5 7 7 7 7 6 8 9 9 10 10 13 16 17
10 10 10 10 10 9 9 8 8 8 9 10 9 10 12 15 17 18 18 19 20 20 20 19 18 17 16 15 16 18 19 18 17 18 19 19 17 16 15 15 15 14 14 14 14 12 11 11 10 8 7 7 6 6 6 7 8 9 9 8 6 6 5 4 4 3 3 3 3 4 4 5 6 7 8 8 7 7 9 10 10 10 10 12 15
10 9 9 10 10 9 9 9 9 10 11 12 12 11 12 13 15 17 18 19 20 20 20 20 20 19 19 20 20 18 18 19 18 19 20 20 19 17 17 16 15 14 14 14 14 12 11 11 10 8 8 8 7 7 8 9 9 10 9 8 7 6 6 5 4 3 3 3 3 4 4 5 6 7 8 9 8 7 8 9 10 10 10 11 12
8 7 7 8 8 8 8 9 10 12 13 13 14 13 13 14 15 17 18 19 20 21 21 22 21 20 20 24 25 21 20 19 18 18 19 19 20 19 18 17 17 16 15 15 14 13 11 10 9 9 10 9 8 9 9 10 10 10 10 8 8 7 6 5 5 4 4 3 3 3 4 5 6 7 8 9 9 8 8 8 9 10 10 11 12
8 7 7 7 6 6 7 9 11 12 13 14 15 15 16 16 17 18 20 21 22 22 23 24 24 22 23 26 26 24 25 24 21 20 20 19 19 20 20 18 18 18 16 15 14 13 11 9 8 8 10 10 9 10 11 11 11 11 10 9 8 8 7 6 5 4 4 3 3 3 4 5 6 7 9 10 9 8 8 8 8 9 10 10 11
8 8 8 8 8 8 9 10 11 12 13 14 16 16 17 18 19 19 21 22 23 24 25 25 25 25 26 27 27 26 26 26 25 25 24 22 19 19 21 20 18 18 17 15 15 14 12 10 9 8 10 10 10 11 12 12 12 11 10 10 9 9 8 7 5 4 4 3 2 2 3 5 6 8 8 8 8 8 8 8 7 9 10 11 11
11 9 9 9 10 11 12 12 12 13 14 14 15 16 18 19 20 21 21 23 24 24 25 26 27 27 28 29 29 28 27 27 28 27 28 27 23 20 21 21 19 19 18 15 15 15 13 12 11 9 9 10 10 12 12 12 13 12 11 10 9 9 8 7 6 4 4 3 2 1 2 4 7 9 8 8 8 8 8 8 8 9 10 10 10
13 12 11 11 11 12 13 14 14 15 15 15 14 15 17 18 20 21 22 24 25 26 26 27 28 29 30 31 30 31 30 29 30 29 28 29 27 22 22 22 21 20 20 17 16 17 14 13 12 10 9 10 10 12 12 13 13 12 11 10 9 9 8 8 8 5 4 4 2 1 2 5 8 10 9 8 8 8 9 9 8 9 9 10 10
12 13 13 13 14 14 14 14 14 15 15 15 14 15 16 18 20 21 22 24 25 25 26 27 28 29 31 32 32 31 31 31 30 30 29 30 28 26 25 25 22 22 21 18 17 17 16 14 13 11 9 10 11 12 13 13 13 12 11 10 11 11 9 9 10 8 5 4 3 2 2 5 8 9 10 9 9 9 9 10 10 9 9 9 9
10 11 12 14 15 15 14 14 14 15 15 16 16 16 17 19 21 22 23 25 25 25 25 26 27 29 30 31 32 31 31 31 30 30 30 30 30 29 28 28 26 23 23 20 18 19 17 15 14 12 10 10 11 12 13 13 13 12 12 12 13 13 10 10 11 11 8 5 4 3 2 5 8 9 10 10 10 10 10 10 11 10 9 9 9
11 12 12 13 14 14 14 14 14 15 16 16 17 19 19 20 21 23 24 25 25 25 24 24 26 28 29 30 31 31 31 31 31 31 30 30 31 31 30 30 29 25 23 22 21 20 19 17 15 14 12 12 12 13 14 14 14 13 13 13 14 13 11 11 13 12 10 7 5 4 3 4 7 9 10 10 10 11 11 11 11 11 10 10 10
12 12 12 13 13 14 14 15 15 16 17 18 19 20 21 22 22 24 25 25 26 25 25 24 25 26 26 27 29 29 29 30 31 30 29 29 30 31 31 31 31 27 24 24 23 22 21 19 17 16 14 13 13 14 14 15 15 14 14 13 14 14 13 13 14 14 12 9 7 5 5 4 6 10 11 10 11 11 12 12 11 11 10 10 10
12 11 12 13 14 15 15 15 15 16 17 18 20 20 22 22 22 22 23 23 25 26 25 25 25 25 23 24 24 23 24 27 29 28 27 27 28 30 31 31 31 29 27 26 25 25 24 20 18 17 16 16 15 15 15 15 15 16 15 14 15 15 15 14 14 15 14 12 9 7 7 5 6 10 12 11 11 11 13 13 12 11 10 11 11
12 12 13 14 15 16 16 16 16 16 17 18 19 19 19 19 18 18 19 20 21 24 25 25 26 26 24 24 21 20 23 25 25 26 26 25 25 27 30 31 32 32 30 28 26 27 25 21 20 19 18 17 17 16 16 16 17 17 17 16 15 16 16 15 15 16 16 14 11 9 9 7 7 10 13 12 12 12 12 13 12 12 11 11 11
13 13 13 14 15 16 16 16 16 17 17 17 17 17 16 15 15 16 16 17 19 22 23 22 23 24 25 26 24 24 27 26 23 23 24 24 24 24 26 29 31 33 33 30 28 28 26 23 22 20 19 19 19 18 18 17 18 19 19 18 17 16 16 16 15 16 16 16 14 11 10 10 8 10 13 13 13 13 14 13 13 13 12 11 10
15 15 16 16 16 16 16 17 18 18 17 16 16 16 16 15 14 15 15 15 17 19 21 20 21 23 23 25 27 28 30 31 30 27 24 24 25 23 23 24 28 32 33 31 29 29 28 26 24 22 20 21 20 19 19 19 19 20 20 19 18 17 17 17 15 16 17 16 15 12 12 12 10 10 13 14 14 16 17 16 15 15 14 11 9
17 17 19 20 19 19 18 18 19 19 19 17 16 17 17 16 15 15 16 15 15 17 20 21 22 23 23 23 25 27 28 32 35 34 30 28 26 23 22 21 24 29 31 31 30 30 30 28 26 24 23 22 22 21 20 20 20 20 21 20 20 19 19 18 17 17 18 16 15 14 14 13 12 11 13 14 15 17 18 18 17 16 14 11 10
16 16 17 19 20 20 19 18 19 20 20 19 18 17 18 18 17 16 16 16 15 17 19 21 22 23 23 23 24 26 28 31 34 36 35 32 29 27 24 22 23 26 30 31 31 31 31 30 28 26 24 23 23 22 21 21 21 21 21 21 21 20 20 20 19 18 18 18 17 17 16 15 13 13 14 15 16 16 18 18 18 17 14 13 12
18 17 16 17 18 18 18 18 19 19 19 19 19 18 17 18 18 18 18 17 16 17 19 21 22 22 22 23 25 27 29 31 32 35 35 33 31 29 27 24 24 26 28 30 32 32 32 32 30 28 26 25 24 23 23 23 22 22 21 21 21 21 21 21 20 20 21 21 19 18 18 16 15 15 16 16 16 16 17 17 16 15 14 14 14
19 19 19 19 18 17 16 17 17 18 19 19 19 19 18 18 19 19 19 18 18 18 20 21 21 22 22 23 25 27 29 31 33 34 34 33 31 30 29 27 26 26 26 27 29 32 33 33 32 30 29 27 25 25 24 24 23 23 22 22 22 22 22 22 22 22 23 22 20 19 19 18 16 17 18 17 17 17 17 16 15 15 14 14 14
19 20 21 21 19 17 16 16 17 18 18 19 19 19 18 19 19 19 19 19 19 19 20 21 21 21 22 24 25 27 27 29 32 35 35 31 28 29 28 26 27 28 26 24 25 28 31 33 33 32 30 28 27 26 25 25 25 24 23 23 22 23 23 23 23 24 24 24 22 20 20 19 18 19 19 18 19 18 18 17 16 15 15 14 14
21 21 21 20 19 18 18 17 18 19 20 21 20 19 19 19 19 19 19 19 20 20 20 21 21 21 22 24 25 26 27 28 30 32 32 29 27 27 26 26 28 28 27 25 23 24 27 30 32 32 31 30 29 28 27 27 26 25 24 24 23 23 24 24 24 25 26 25 23 21 21 21 20 21 21 19 19 19 18 18 17 16 15 15 14
18 19 19 19 20 20 19 19 19 21 23 22 20 20 20 20 21 21 21 22 21 21 21 21 21 21 22 23 24 25 25 26 27 28 28 29 29 27 26 27 28 28 29 28 25 24 25 27 29 31 32 31 30 29 29 28 27 26 25 25 24 24 25 25 25 25 26 26 24 22 22 22 22 22 22 20 20 20 19 18 18 17 16 15 16
16 16 17 19 19 20 20 20 20 23 24 23 22 21 21 22 22 22 23 24 23 23 23 22 22 21 22 23 23 23 22 23 24 26 27 30 31 29 28 28 28 28 30 30 29 28 26 24 25 28 31 32 32 30 29 29 28 27 26 26 25 25 26 27 26 26 27 27 25 23 22 23 24 25 25 22 21 20 20 19 18 17 16 16 17
14 15 16 17 18 19 19 19 20 23 23 23 23 23 22 23 24 24 24 24 24 24 23 23 24 23 23 22 22 21 21 21 22 24 26 29 32 31 30 30 28 27 28 29 31 31 29 27 26 27 29 31 32 31 30 30 29 28 27 27 26 26 27 28 27 27 28 28 27 24 23 24 25 27 27 24 21 21 20 19 18 17 17 18 18
12 13 14 15 16 17 17 18 20 22 22 22 23 24 23 23 24 25 26 26 26 26 25 25 25 25 24 22 21 21 20 20 21 22 23 26 29 31 31 30 28 28 27 27 30 33 32 30 30 29 28 29 31 30 31 31 30 30 29 29 28 27 28 28 27 27 28 29 28 26 25 25 26 27 27 25 23 20 21 20 18 19 19 18 19
11 12 13 13 14 15 16 17 18 20 21 22 23 24 24 24 24 25 26 27 27 27 26 26 25 24 23 22 21 21 20 20 21 21 21 23 27 30 30 29 28 29 29 29 32 33 31 31 31 30 29 29 29 30 31 31 31 30 30 30 29 28 28 28 28 28 29 30 29 27 26 26 27 27 27 26 24 21 21 21 19 20 20 20 20
11 12 13 13 13 14 14 16 17 18 19 20 21 22 22 23 25 25 26 27 28 28 27 26 25 24 23 22 21 21 20 20 21 22 22 23 25 28 29 29 29 29 30 32 35 35 32 30 31 30 29 29 28 29 30 31 31 31 32 32 30 29 28 28 28 29 30 31 30 29 27 27 27 27 26 26 25 23 22 21 20 21 21 21 22
11 12 13 13 14 14 14 15 15 16 17 18 18 19 20 21 23 24 25 25 26 28 27 27 25 24 24 23 22 22 21 20 20 22 23 24 25 27 28 30 30 31 31 34 38 39 34 31 31 29 28 28 28 29 30 31 32 32 33 33 31 30 30 30 29 29 30 31 30 29 28 28 28 27 26 26 25 24 24 22 21 22 22 23 23
11 12 13 14 14 15 15 14 15 16 18 18 19 20 21 21 22 23 24 25 25 25 26 26 26 26 25 24 22 22 21 21 21 21 22 23 24 26 28 31 32 32 33 36 40 40 37 34 33 31 29 28 28 29 30 32 33 33 34 34 33 32 32 31 31 31 31 32 31 29 28 28 29 28 27 26 25 25 25 23 23 24 24 24 24
11 12 13 14 14 14 15 15 16 17 18 20 21 23 24 24 24 24 25 26 26 26 25 24 24 24 26 25 23 22 22 22 22 21 21 23 24 26 28 30 32 33 35 37 39 41 40 36 34 34 31 30 30 30 30 32 33 34 35 37 36 35 34 33 32 32 32 32 31 30 29 29 29 29 27 26 26 26 26 25 25 25 25 25 25
13 13 13 14 14 14 15 15 17 18 20 21 22 24 25 26 26 26 26 26 27 27 26 25 23 22 24 25 24 22 22 22 23 22 22 22 24 27 28 29 32 34 35 37 39 40 41 38 35 35 33 31 32 32 31 30 31 33 36 38 38 37 36 35 34 33 33 33 32 30 30 30 30 30 28 27 27 27 27 27 26 26 27 26 26
15 15 15 15 16 16 16 17 18 19 21 22 23 24 25 26 27 28 28 28 27 27 27 25 23 22 22 24 25 23 22 23 24 24 24 24 24 26 28 30 32 34 35 38 40 40 40 39 36 34 33 32 33 34 32 31 31 33 35 38 39 39 38 37 35 35 34 34 32 31 30 30 31 31 29 28 28 29 28 28 27 27 27 27 27
18 18 18 18 19 19 20 20 21 21 22 23 23 24 25 26 27 28 29 30 30 29 28 26 23 22 21 23 24 25 25 25 24 23 23 25 26 27 28 29 31 34 35 38 40 40 40 38 36 34 33 33 33 34 34 33 33 34 36 38 40 41 40 39 37 36 35 34 34 32 31 31 32 32 30 29 29 30 29 29 29 28 28 28 28
20 20 21 21 21 22 22 22 23 23 24 24 24 25 26 26 26 27 28 29 30 31 30 28 26 23 21 21 22 24 26 26 26 24 23 24 26 27 29 29 30 32 34 37 39 38 39 38 35 36 37 35 34 35 36 34 34 35 36 38 40 42 44 42 38 37 36 36 36 34 32 32 32 33 32 30 30 31 31 30 30 29 29 29 29
21 22 22 22 23 23 23 23 24 24 25 25 26 26 27 28 28 28 28 29 29 30 31 30 28 27 24 22 22 21 23 26 27 26 25 26 26 25 26 28 29 31 33 36 39 38 38 38 38 38 37 36 36 37 37 36 36 37 37 38 40 43 45 42 39 39 39 38 38 36 34 33 33 33 33 31 31 32 32 31 31 30 30 30 30
23 23 23 24 24 24 24 25 25 26 26 27 29 29 29 29 29 29 29 28 28 29 29 29 28 27 26 25 24 22 21 23 26 27 27 29 29 28 26 26 28 30 32 35 39 39 37 37 39 38 37 37 38 39 39 38 38 39 39 39 41 43 43 42 41 41 40 40 40 39 36 35 34 34 34 33 32 32 33 32 32 31 31 31 31
24 24 24 24 25 25 26 26 27 27 28 29 30 31 31 31 31 31 30 29 28 28 28 28 28 26 25 25 25 24 23 23 25 27 28 29 30 31 30 28 27 29 32 34 37 39 38 38 39 38 37 38 40 41 42 41 40 39 39 41 42 41 41 42 43 43 42 42 42 41 39 38 37 36 37 36 35 34 34 34 33 32 32 31 31
24 24 24 24 25 26 26 27 28 28 28 28 28 29 30 31 31 31 31 30 29 28 28 29 29 28 26 24 23 23 24 25 26 27 29 30 31 32 32 31 29 28 31 35 36 36 38 40 41 40 39 41 42 42 42 41 40 39 40 42 42 41 42 43 44 45 45 44 43 42 41 40 38 38 39 39 38 36 36 36 35 33 33 32 32
24 24 24 25 26 27 27 28 28 29 29 28 28 28 28 29 30 31 31 31 30 30 29 29 29 29 29 26 24 23 23 25 26 27 29 30 32 33 34 34 33 31 30 33 36 37 37 40 42 41 41 42 42 41 41 39 39 40 41 42 42 43 45 44 43 44 46 45 44 43 42 41 40 40 41 41 40 38 38 37 36 35 34 33 32
25 25 26 26 27 28 29 30 30 30 30 29 28 28 28 28 30 31 31 31 31 31 31 30 30 30 30 29 27 25 23 23 25 27 28 30 31 34 35 35 36 35 33 32 34 37 38 40 42 43 43 42 40 41 42 41 39 41 42 43 44 46 47 46 45 45 45 46 47 46 44 42 42 43 43 42 41 40 38 37 37 36 35 34 33
25 26 27 28 29 30 31 31 31 31 31 31 31 30 28 28 29 31 31 32 32 33 33 33 32 31 30 31 30 28 26 24 25 27 28 29 30 32 34 35 36 37 37 35 34 34 36 38 41 42 42 40 39 41 43 41 39 40 42 44 45 46 47 47 45 44 44 45 49 48 46 44 44 45 45 44 42 40 38 37 37 37 35 34 33
26 27 29 30 30 31 31 31 32 32 32 32 33 32 31 29 29 31 32 33 33 33 34 34 34 32 31 31 31 31 29 28 28 28 29 30 31 31 33 34 35 35 37 38 37 35 35 36 39 41 41 40 39 40 41 41 40 40 42 45 46 47 46 43 43 44 45 46 48 49 49 48 46 45 45 44 43 41 38 36 36 37 36 34 33
27 29 30 31 31 32 32 32 32 33 33 33 33 33 32 31 30 30 32 33 34 34 34 34 35 35 33 32 32 33 33 31 30 30 31 32 32 33 33 35 35 35 36 37 38 37 37 37 39 41 42 41 40 39 38 39 40 39 40 42 43 44 44 42 44 47 47 47 46 47 50 50 46 45 45 44 43 41 37 35 35 36 36 34 33
28 30 32 33 33 33 34 34 35 35 35 34 34 34 34 33 31 31 32 34 35 35 35 35 36 36 35 34 34 35 35 34 32 31 32 34 33 33 34 35 36 37 37 36 36 37 37 37 39 40 41 41 40 39 37 37 38 38 39 41 42 42 43 45 47 48 47 47 45 45 49 51 47 45 44 42 41 40 37 36 35 36 36 35 33
28 31 34 35 35 35 35 36 37 38 38 38 38 37 36 35 33 32 33 35 36 37 38 37 38 38 37 35 35 37 38 37 36 34 34 36 36 33 33 34 36 38 38 36 36 37 37 36 36 37 38 38 39 40 37 34 34 35 38 42 44 44 45 46 46 46 47 47 46 44 47 49 47 44 42 40 39 39 38 37 36 36 36 35 33
28 31 34 35 35 36 36 37 38 39 40 40 40 40 38 36 34 33 34 35 37 38 39 39 40 41 39 36 34 37 39 40 39 38 37 38 38 36 35 34 35 38 38 35 35 37 37 36 35 34 34 35 35 38 37 34 33 34 37 41 43 44 47 48 46 45 46 47 47 43 43 46 46 44 42 41 39 39 41 40 38 37 37 36 34
28 30 32 34 35 36 37 38 39 40 41 42 42 41 39 37 35 34 34 36 37 39 41 41 41 42 42 38 34 35 38 40 40 39 38 38 39 39 39 37 36 37 35 33 34 36 36 36 35 32 32 33 33 35 37 35 34 36 37 39 41 43 46 47 46 45 45 45 46 43 40 44 46 45 43 43 40 39 41 41 39 38 38 38 36
Wind_Direction
272 282 285 283 286 289 291 289 293 280 267 262 250 237 228 219 212 204 192 191 198 206 215 216 221 231 242 255 258 263 274 283 289 296 301 302 302 305 310 315 319 326 332 334 329 325 326 322 319 317 310 301 281 251 237 233 213 200 194 183 175 173 175 176 181 188 187 171 142 126 116 110 97 96 102 105 104 106 121 138 151 154 145 133 124
273 278 282 284 283 284 289 288 293 291 270 265 258 248 237 227 220 217 212 210 214 220 226 227 232 239 239 248 260 266 271 280 286 288 290 292 293 299 305 310 314 321 327 330 326 321 321 318 316 312 305 297 271 240 234 233 212 199 192 182 181 183 184 190 195 196 189 176 161 149 133 122 107 97 94 101 106 107 109 116 140 159 160 152 139
273 272 272 274 276 278 281 281 287 286 275 268 263 256 244 235 229 226 226 225 225 226 232 233 234 243 245 247 258 265 269 274 279 282 283 283 284 290 296 301 306 314 321 324 322 319 317 314 312 307 295 280 267 249 226 220 211 199 191 185 187 191 190 201 211 215 208 196 174 154 141 133 121 109 99 96 105 108 109 110 127 155 168 168 159
276 273 271 273 272 272 276 280 286 283 278 270 264 261 250 242 236 234 234 234 235 235 241 242 239 246 253 255 256 261 267 267 269 274 277 277 278 283 288 293 299 306 315 318 318 314 313 313 310 305 287 266 265 254 225 216 207 195 190 187 190 196 199 210 220 225 220 210 181 158 149 143 132 126 119 106 104 107 109 109 116 139 162 174 174
281 279 280 281 275 273 277 283 288 283 278 271 263 263 258 251 245 243 242 241 243 243 247 249 245 247 255 261 258 258 263 264 266 269 271 272 275 280 282 287 292 299 308 312 311 308 309 309 306 300 281 264 263 249 221 209 198 191 190 187 194 204 207 215 220 221 212 203 186 168 163 156 144 142 135 118 109 110 110 108 110 122 140 161 173
279 282 287 286 280 277 278 280 284 280 277 274 268 263 259 257 254 253 250 247 249 249 252 254 251 249 254 262 261 261 263 261 264 266 267 268 271 275 277 282 285 291 302 307 304 302 305 304 301 293 279 273 264 240 215 203 194 192 191 191 201 207 206 208 207 200 193 192 187 171 167 160 151 151 143 127 117 115 112 106 107 113 121 133 150
274 275 286 284 278 276 278 279 278 277 277 276 274 271 266 261 258 258 257 256 257 259 261 263 261 257 261 267 267 269 270 263 258 257 260 263 266 270 272 276 280 285 294 300 297 296 300 299 293 283 277 277 264 237 213 201 197 196 194 197 205 205 199 195 191 183 175 177 181 165 160 157 156 159 150 134 121 114 110 102 99 105 115 126 134
281 265 278 292 296 293 289 283 277 277 281 281 280 278 276 273 268 265 264 264 264 265 266 268 270 268 268 271 271 272 274 273 267 259 256 255 257 263 268 270 274 280 287 294 293 290 293 291 288 281 273 269 256 235 213 201 202 202 199 203 204 198 193 186 175 168 163 163 167 161 162 165 160 153 143 132 125 120 119 114 104 102 111 121 124
307 284 286 301 311 313 309 299 289 286 288 291 290 285 281 279 276 274 272 271 269 268 268 269 271 272 271 273 276 276 276 277 272 264 261 259 252 256 266 268 269 274 279 288 289 285 283 282 285 282 268 261 247 233 217 203 206 208 204 204 199 193 189 176 162 159 160 157 152 152 165 174 160 144 137 135 135 132 130 131 123 115 115 117 118
316 308 304 304 309 314 316 313 306 300 298 299 299 295 289 284 281 280 278 277 275 272 270 269 270 271 272 274 277 278 279 278 273 266 263 264 260 256 262 265 265 269 273 280 284 280 276 274 279 278 265 254 239 229 219 207 210 213 207 202 199 195 184 172 173 170 165 161 139 133 154 173 162 149 148 144 142 140 139 141 136 128 124 124 125
311 315 314 310 309 313 317 318 314 309 304 301 299 297 295 291 288 285 282 280 277 275 274 272 270 269 270 272 273 276 278 278 276 270 263 263 264 260 260 260 262 267 269 272 276 274 270 270 273 271 261 250 235 227 222 214 214 216 209 202 201 201 192 187 193 188 175 172 155 149 149 166 163 155 157 154 147 147 147 147 145 139 134 132 132
306 312 315 313 311 312 314 314 309 304 299 296 293 291 290 289 287 285 284 281 277 276 275 274 272 270 270 270 271 272 274 274 274 273 266 262 261 260 259 257 258 265 266 265 268 268 267 267 266 261 254 246 235 226 224 221 220 219 210 204 205 206 208 206 198 191 197 203 187 181 158 166 167 161 162 162 156 156 157 156 153 149 145 139 137
293 298 302 302 301 303 304 302 297 294 294 295 295 291 288 287 289 290 289 287 284 280 278 277 276 275 274 274 273 271 271 271 271 272 269 264 259 258 259 256 256 260 262 261 260 262 263 262 260 254 247 241 235 229 227 226 226 222 212 212 213 207 212 215 201 194 203 218 209 198 191 180 178 169 165 166 164 165 165 162 156 153 152 148 145
284 288 291 292 291 291 293 294 294 293 296 299 299 298 295 293 293 293 293 292 290 289 287 285 282 279 279 280 278 274 270 269 268 269 268 263 258 258 257 254 255 255 256 258 256 256 258 259 255 250 244 240 235 231 230 230 230 224 216 218 219 211 215 220 209 201 204 217 218 208 211 203 187 177 173 173 171 171 169 164 160 160 160 159 157
289 292 295 296 296 296 298 300 301 302 303 303 302 302 301 301 299 296 296 294 292 292 293 292 290 284 279 277 276 275 273 271 269 267 266 263 258 257 255 252 253 252 252 253 252 251 252 253 252 248 243 241 237 234 233 234 233 227 222 222 220 217 222 223 213 206 208 216 222 219 215 213 197 185 181 180 177 176 175 170 166 167 170 171 171
287 288 291 293 296 300 303 305 305 304 303 302 302 303 305 306 304 300 300 298 294 293 294 296 295 288 279 276 275 273 270 271 272 271 268 264 259 256 254 253 253 252 251 250 249 249 248 247 249 248 244 242 240 238 235 235 234 229 229 228 222 221 223 223 216 209 209 214 222 228 221 218 205 189 185 187 185 181 179 176 174 177 183 187 191
286 285 286 288 291 294 298 301 300 299 299 300 303 305 307 307 304 299 299 302 298 294 294 297 298 292 284 279 274 267 268 273 275 273 270 266 261 258 254 254 254 253 254 251 247 249 249 247 248 247 244 242 241 239 236 235 235 232 233 234 227 224 222 221 218 211 208 212 220 232 228 221 209 194 191 192 192 187 180 181 184 185 192 199 201
287 289 291 291 292 295 300 302 300 300 301 302 306 308 307 306 303 299 298 303 302 296 294 299 302 298 292 286 279 271 272 273 270 269 271 268 265 260 255 254 253 253 254 250 246 248 250 248 247 245 243 242 240 239 237 235 235 235 237 237 231 226 222 221 220 214 209 210 216 232 235 226 217 204 201 199 198 195 188 187 188 189 197 204 204
289 294 297 297 297 298 301 302 301 303 305 306 309 311 309 306 304 303 304 306 307 303 300 305 307 302 299 296 289 283 277 270 264 262 266 268 267 263 258 255 252 251 251 249 246 246 247 246 246 244 241 240 238 237 236 236 236 237 238 237 232 227 223 222 221 216 211 207 211 228 236 232 226 216 210 207 204 200 197 194 194 199 208 210 208
297 298 297 298 300 300 301 302 303 308 311 311 310 309 307 305 303 302 305 305 306 308 307 308 309 306 305 300 294 291 284 275 269 262 258 260 263 261 258 256 252 249 248 248 247 247 246 245 244 243 239 237 237 236 235 235 236 237 238 236 231 227 224 222 219 215 210 202 207 224 232 232 233 226 218 214 208 204 204 204 207 214 218 216 214
294 295 297 297 297 299 300 302 305 309 312 312 309 306 304 302 300 301 304 304 303 305 305 304 304 304 304 301 297 294 289 282 272 260 253 253 255 256 255 254 252 249 246 245 246 246 245 244 243 241 239 236 236 236 236 235 235 235 236 234 230 227 225 222 217 213 207 200 204 218 226 229 234 232 224 216 210 206 206 210 214 218 219 215 213
281 284 288 289 289 291 293 296 300 302 305 307 305 303 301 299 299 301 303 304 302 299 298 297 297 296 297 298 296 293 287 277 263 253 249 249 252 254 253 251 252 253 250 245 244 244 243 243 242 239 236 234 234 236 237 236 235 234 234 233 230 228 226 223 218 213 209 206 207 212 218 226 232 232 225 216 211 209 208 209 213 215 214 210 207
279 280 279 279 280 283 287 290 291 295 299 300 300 300 301 298 297 298 300 302 300 297 295 293 293 295 296 294 291 288 283 274 265 258 253 248 248 251 252 250 254 257 254 250 247 246 245 243 241 239 236 234 233 234 236 236 235 234 234 233 231 229 226 224 220 215 213 212 213 212 212 219 227 229 223 215 212 212 210 209 210 211 209 205 204
274 275 277 277 278 280 283 284 287 292 294 293 294 295 296 295 294 295 297 299 297 296 295 294 295 298 298 295 290 286 281 279 275 264 257 252 248 252 257 256 256 256 253 251 249 247 246 245 243 241 238 234 232 233 235 235 234 233 233 232 231 229 226 225 222 219 218 217 217 215 210 211 221 226 221 214 213 213 210 210 209 208 207 204 203
270 274 277 280 282 284 285 286 290 292 291 289 290 291 290 290 291 292 293 293 292 293 294 294 296 298 298 296 292 286 283 284 280 265 258 256 250 252 259 259 258 257 252 250 250 248 247 245 244 242 239 235 233 232 233 234 234 232 233 232 230 229 227 226 224 222 222 220 218 216 211 208 215 223 220 214 214 213 211 210 209 208 207 205 204
281 282 284 286 289 293 293 291 289 287 286 287 288 289 289 288 288 289 289 289 289 291 292 292 292 294 295 296 293 288 283 283 281 271 260 253 248 250 255 257 259 259 254 250 251 251 248 244 243 242 240 237 234 232 231 232 233 231 231 232 230 229 229 228 226 225 225 222 218 215 212 208 209 217 220 218 217 215 212 212 211 209 206 204 203
295 294 293 294 296 298 297 294 289 284 284 285 285 287 288 288 286 286 286 288 289 289 290 291 291 291 293 295 294 291 288 284 279 273 260 250 250 251 251 252 255 258 257 252 249 249 247 247 246 242 239 237 235 233 231 231 232 229 229 231 231 229 229 229 227 225 225 223 218 215 213 209 207 213 219 221 220 217 213 213 212 208 205 203 200
303 301 300 301 301 301 300 298 293 290 288 287 287 287 287 287 287 286 285 286 288 289 290 291 291 291 290 292 294 293 292 289 281 273 262 253 253 253 253 253 251 252 253 250 247 245 245 247 246 243 240 238 236 233 231 232 232 229 228 230 231 229 228 229 227 224 224 222 218 215 214 211 209 213 218 220 221 217 213 213 210 206 204 201 196
311 309 308 308 308 307 305 302 298 297 296 294 293 292 289 287 286 288 288 287 287 288 289 290 291 292 290 290 293 293 292 289 281 274 267 258 254 254 257 257 253 251 248 245 245 246 245 246 246 244 242 238 237 234 232 231 230 228 228 229 230 228 227 228 226 223 222 220 218 217 215 213 212 215 219 222 223 218 213 212 208 203 202 198 192
317 316 316 316 316 314 311 308 305 304 304 304 304 302 299 294 290 288 288 287 287 287 288 290 291 292 291 290 291 292 292 289 281 273 267 262 257 255 257 259 257 252 247 245 248 251 250 249 248 246 244 241 239 237 234 232 230 227 227 228 229 228 227 228 226 222 220 218 217 218 217 216 216 218 221 224 224 218 213 212 207 202 201 196 191
328 327 328 329 328 326 324 320 317 316 317 317 317 316 315 310 305 300 294 290 288 287 287 288 290 291 291 289 290 289 289 290 288 279 270 264 262 259 257 257 256 252 249 246 248 251 253 252 250 247 245 245 244 242 239 234 230 228 226 227 228 227 228 228 227 223 220 217 217 218 219 218 219 221 223 225 225 218 212 212 207 202 200 196 192
342 343 343 344 344 343 340 335 332 332 332 332 329 328 328 325 323 319 314 309 302 297 293 288 286 287 287 286 288 288 287 286 288 286 279 270 266 264 261 259 256 253 251 248 248 252 254 254 254 250 247 248 248 246 243 237 231 228 227 227 227 227 227 227 227 224 220 217 217 219 221 220 220 223 223 223 222 216 211 210 207 203 201 197 195
354 355 355 356 356 354 351 347 344 343 342 340 337 336 335 334 333 331 328 326 321 315 308 298 288 282 280 281 283 286 287 284 282 283 282 277 271 268 266 264 260 256 253 251 251 254 255 253 253 251 247 248 248 246 244 239 233 229 226 226 226 226 226 226 226 224 220 218 218 220 221 221 221 222 222 221 217 212 209 208 207 205 202 199 198
4 2 2 2 1 358 354 350 349 348 347 344 341 339 338 337 336 335 333 331 329 325 321 314 302 288 278 275 279 284 286 284 282 281 280 279 275 271 268 266 263 259 255 252 251 253 253 250 249 249 247 246 246 245 242 238 234 231 227 225 224 224 225 225 225 223 219 217 219 221 222 222 222 222 222 219 214 210 208 208 207 206 204 202 201
15 11 9 7 4 1 356 352 349 348 348 347 344 342 341 339 337 336 335 334 332 329 326 322 315 303 287 275 274 280 283 281 279 278 277 277 275 273 270 267 265 264 261 256 252 252 252 249 245 246 246 245 245 244 242 239 236 233 229 226 225 224 223 224 223 222 219 217 218 220 221 222 222 222 222 218 213 210 209 207 207 207 206 204 204
26 23 19 15 12 9 4 1 356 353 352 350 348 346 344 343 341 339 337 336 335 333 330 326 320 311 298 283 273 273 279 281 278 277 277 278 278 276 273 269 265 265 264 260 255 253 253 249 244 247 247 245 245 245 243 240 236 234 231 227 226 225 224 223 222 220 218 217 218 219 221 221 221 221 222 219 213 211 209 209 208 208 208 207 206
32 30 27 23 20 17 14 11 7 3 360 356 354 352 350 347 345 342 340 338 337 337 334 331 326 317 307 295 281 272 275 281 281 280 280 281 282 281 279 274 268 267 265 262 257 254 252 247 244 248 250 245 243 244 242 238 234 233 231 228 227 226 225 222 220 219 217 217 218 219 220 221 220 220 221 219 214 212 211 210 209 209 209 209 208
36 33 30 28 25 23 20 16 12 9 5 2 359 357 355 352 349 346 343 339 339 339 338 336 333 327 318 306 293 280 276 279 282 281 278 278 279 280 281 279 275 270 266 262 258 253 250 247 245 246 247 244 241 240 239 235 232 232 231 229 228 228 226 223 219 217 216 215 217 218 220 220 219 219 220 219 215 213 212 212 211 210 210 211 210
39 35 33 30 27 25 22 19 16 13 9 6 3 1 358 356 353 351 347 343 340 339 340 341 339 334 328 319 308 295 283 280 281 279 276 273 274 275 276 280 280 275 268 264 260 253 247 245 244 243 244 244 241 238 236 234 232 232 232 229 228 228 227 224 218 216 215 214 216 218 220 221 220 219 220 219 217 215 213 213 212 211 211 212 212
39 35 33 30 27 25 22 19 17 14 12 11 8 5 2 359 357 354 351 347 343 339 339 341 341 338 334 327 319 310 296 285 280 278 276 274 274 273 271 275 281 280 274 266 257 250 246 244 244 244 243 244 241 237 234 230 227 227 229 231 230 229 229 225 220 217 215 213 214 217 219 220 219 219 219 219 218 217 215 214 213 213 213 214 213
40 36 32 28 24 22 20 17 15 13 13 13 12 8 4 1 359 356 353 351 347 343 339 338 339 339 337 331 325 318 309 296 283 277 274 273 274 274 271 270 275 279 279 272 258 249 246 243 243 244 244 242 240 235 231 229 227 227 230 232 230 230 232 229 222 219 218 216 214 214 216 217 217 217 218 218 217 216 216 215 214 213 214 215 214
42 38 34 30 26 23 19 17 14 12 11 11 11 8 5 2 360 357 354 352 350 347 343 340 338 337 336 333 328 321 314 305 292 281 274 270 269 270 269 268 267 270 275 274 264 254 247 243 243 244 242 239 238 235 232 232 232 231 231 232 230 230 231 227 220 218 219 219 217 215 216 217 217 217 217 217 216 216 215 215 214 214 214 215 215
43 39 36 33 29 25 21 19 16 14 12 9 7 5 3 2 1 358 355 354 353 351 348 345 341 339 336 334 331 326 318 311 303 291 282 275 271 268 267 266 263 262 264 268 266 259 250 245 243 242 239 237 238 237 236 236 234 231 232 234 233 230 229 225 221 219 219 219 219 218 218 218 218 218 218 216 215 215 215 215 214 214 215 216 215
41 38 35 31 28 24 21 19 17 15 13 10 7 4 2 1 1 360 358 356 354 353 351 349 346 343 339 336 334 332 326 320 313 305 295 284 276 272 269 268 265 261 258 259 262 261 256 248 242 239 239 240 240 239 239 238 236 232 233 235 234 231 229 228 228 226 223 220 219 218 219 220 219 219 218 217 216 216 216 215 214 214 215 215 215
37 34 31 27 25 23 20 19 17 15 13 10 7 4 2 1 0 360 360 358 357 355 354 351 348 346 343 340 337 335 332 328 321 315 308 297 286 277 272 270 267 263 258 255 255 257 260 256 247 242 242 242 239 240 241 241 239 235 232 232 232 230 230 231 232 233 230 224 219 217 218 219 219 219 218 216 216 216 216 215 214 215 215 214 214
34 31 28 25 23 22 21 19 18 15 13 11 9 5 1 0 360 359 0 0 359 358 356 353 351 348 345 343 341 339 336 334 330 325 318 309 300 290 282 277 272 267 262 257 253 252 255 257 254 251 250 248 246 246 246 244 242 238 234 233 231 230 232 233 233 234 234 229 222 217 217 218 217 218 219 217 215 215 216 216 215 214 215 214 214
33 30 27 24 23 23 22 20 18 17 14 12 10 6 2 360 359 359 0 0 359 359 358 356 354 351 348 346 345 343 340 337 334 331 326 318 309 301 294 287 280 274 266 261 257 253 251 252 253 255 255 254 253 252 249 245 243 241 239 237 236 236 235 233 231 231 233 232 225 217 218 220 216 215 217 216 215 215 215 215 215 215 215 214 214
35 31 28 26 25 24 23 21 20 18 16 14 12 9 4 1 359 358 359 0 360 360 359 358 357 355 352 349 348 346 342 339 335 333 330 324 316 307 299 292 286 280 272 264 260 257 254 252 251 252 254 254 253 251 247 242 241 241 238 234 234 234 231 227 227 228 229 230 227 220 219 220 217 213 214 214 214 214 215 214 214 214 214 214 214
36 32 29 27 26 24 23 21 19 17 16 15 14 11 7 4 1 359 359 0 1 1 0 360 360 358 356 355 351 347 345 343 339 336 333 328 321 314 306 296 288 282 276 269 263 259 257 256 254 253 253 254 255 254 248 239 233 234 234 231 231 231 227 223 224 226 227 229 229 223 217 217 217 212 211 213 214 215 215 214 213 212 212 213 214
35 32 29 27 25 24 23 21 19 16 15 14 13 11 9 6 3 2 1 0 2 2 1 0 0 360 358 357 354 350 348 346 342 338 335 331 326 320 313 303 291 283 278 273 267 262 260 258 257 254 251 252 253 252 250 243 234 229 229 231 232 230 226 223 223 226 228 229 230 225 215 213 215 212 209 211 214 216 217 215 213 212 211 211 212
34 31 28 27 25 24 23 22 19 17 15 14 12 10 10 8 5 4 3 1 2 3 2 1 0 359 358 356 353 351 350 347 343 339 335 330 327 324 319 311 297 285 280 276 270 266 264 261 258 255 251 250 249 246 246 244 235 228 228 232 235 233 231 228 226 225 225 226 228 225 214 209 211 211 209 209 209 211 214 215 213 212 211 211 210